GW1261 Weather Reports


Display with metric or nautical units.
time (UTC)temp
F
wind
direction
speed
MPH
gust
MPH
rain 1hr
in
rain 24hr
in
rain mn
in
humidity
%
barometer
mb
20260831030716 78 202 0.0 0.0 0.00 0.00 0.00 99 974.8
20260831030214 78 202 0.0 0.0 0.00 0.00 0.00 99 974.7
20260831025708 78 202 0.0 0.0 0.00 0.00 0.00 99 975.0
20260831025203 78 202 0.0 0.0 0.00 0.00 0.00 99 974.8
20260831024659 78 202 0.0 0.0 0.00 0.00 0.00 99 974.8
20260831024157 78 202 0.0 0.0 0.00 0.00 0.00 99 974.9
20260831023656 77 216 0.0 0.0 0.00 0.00 0.00 99 974.7
20260831023155 77 216 0.0 0.0 0.00 0.00 0.00 99 974.7
20260831022651 77 215 0.0 0.0 0.00 0.00 0.00 99 975.0
20260831022145 78 211 0.0 0.0 0.00 0.00 0.00 99 974.7
20260831021644 78 211 0.0 0.0 0.00 0.00 0.00 99 974.7
20260831021134 78 211 0.0 0.0 0.00 0.00 0.00 99 974.7
20260831020630 78 211 0.0 0.0 0.00 0.00 0.00 99 974.7
20260831020124 78 211 0.0 0.0 0.00 0.00 0.00 99 974.8
20260831015615 78 211 0.0 0.0 0.00 0.00 0.00 99 974.9
20260831015114 78 211 0.0 0.0 0.00 0.00 0.00 99 974.8
20260831014609 77 211 0.0 0.0 0.00 0.00 0.00 99 974.7
20260831014105 77 211 0.0 0.0 0.00 0.00 0.00 99 974.8
20260831013601 76 211 0.0 0.0 0.00 0.00 0.00 99 974.6
20260831013100 77 201 0.0 0.0 0.00 0.00 0.00 99 974.7
20260831012554 77 210 0.0 0.0 0.00 0.00 0.00 99 974.5
20260831012049 77 211 0.0 0.0 0.00 0.00 0.00 99 974.6
20260831011549 76 210 0.0 0.0 0.00 0.00 0.00 99 974.6
20260831011044 76 214 0.0 0.0 0.00 0.00 0.00 99 974.6
20260831010539 76 213 0.0 0.0 0.00 0.00 0.00 99 974.6
20260831010036 76 213 0.0 0.0 0.00 0.00 0.00 99 974.2
20260831005531 76 212 0.0 0.0 0.00 0.00 0.00 99 974.2
20260831005030 76 212 0.0 0.0 0.00 0.00 0.00 99 974.3
20260831004527 76 203 0.0 0.0 0.00 0.00 0.00 99 974.2
20260831004022 76 203 0.0 0.0 0.00 0.00 0.00 99 974.4
20260831003518 75 203 0.0 0.0 0.00 0.00 0.00 99 974.2
20260831003014 75 203 0.0 0.0 0.00 0.00 0.00 99 974.3
20260831002512 75 203 0.0 0.0 0.00 0.00 0.00 99 974.0
20260831002008 75 200 0.0 0.0 0.00 0.00 0.00 99 974.2
20260831001503 75 200 0.0 0.0 0.00 0.00 0.00 99 974.1
20260831000959 75 200 0.0 0.0 0.00 0.00 0.00 99 974.1
20260831000455 75 200 0.0 0.0 0.00 0.00 0.00 99 974.0
20260830235953 75 200 0.0 0.0 0.00 0.00 0.00 99 974.2
20260830235448 75 200 0.0 0.0 0.00 0.00 0.00 99 974.0
20260830234944 75 200 0.0 0.0 0.00 0.00 0.00 99 974.1
20260830234438 74 208 0.0 0.0 0.00 0.00 0.00 99 973.7
20260830233934 74 208 0.0 0.0 0.00 0.00 0.00 99 973.8
20260830233430 74 208 0.0 0.0 0.00 0.00 0.00 99 973.5
20260830232925 74 208 0.0 0.0 0.00 0.00 0.00 99 973.4
20260830232421 74 208 0.0 0.0 0.00 0.00 0.00 99 973.6
20260830231917 74 208 0.0 0.0 0.00 0.00 0.00 99 973.3
20260830231412 74 208 0.0 0.0 0.00 0.00 0.00 99 973.4
20260830230911 74 208 0.0 0.0 0.00 0.00 0.00 99 973.5
20260830230407 74 208 0.0 0.0 0.00 0.00 0.00 99 973.6
20260830225906 74 208 0.0 0.0 0.00 0.00 0.00 99 973.4
20260830225402 74 208 0.0 0.0 0.00 0.00 0.00 99 973.3
20260830224856 74 208 0.0 0.0 0.00 0.00 0.00 99 973.2
20260830224355 74 208 0.0 0.0 0.00 0.00 0.00 99 973.2
20260830223852 74 208 0.0 0.0 0.00 0.00 0.00 99 973.1
20260830223348 74 208 0.0 0.0 0.00 0.00 0.00 99 973.1
20260830222847 75 208 0.0 0.0 0.00 0.00 0.00 99 972.8
20260830222343 75 208 0.0 0.0 0.00 0.00 0.00 99 972.9
20260830221838 75 208 0.0 0.0 0.00 0.00 0.00 99 972.9
20260830221335 75 208 0.0 0.0 0.00 0.00 0.00 99 972.8
20260830220830 75 208 0.0 0.0 0.00 0.00 0.00 99 972.8
20260830220324 75 208 0.0 0.0 0.00 0.00 0.00 99 973.0
20260830215822 75 208 0.0 0.0 0.00 0.00 0.00 99 972.9
20260830215317 75 208 0.0 0.0 0.00 0.00 0.00 99 972.8
20260830214812 75 208 0.0 0.0 0.00 0.00 0.00 99 972.9
20260830214307 75 208 0.0 0.0 0.00 0.00 0.00 99 972.7
20260830213806 75 208 0.0 0.0 0.00 0.00 0.00 99 972.7
20260830213301 74 208 0.0 0.0 0.00 0.00 0.00 99 972.7
20260830212757 75 208 0.0 0.0 0.00 0.00 0.00 99 972.8
20260830212253 74 208 0.0 0.0 0.00 0.00 0.00 99 972.7
20260830211752 74 208 0.0 0.0 0.00 0.00 0.00 99 972.8
20260830211251 74 208 0.0 0.0 0.00 0.00 0.00 99 972.9
20260830210748 74 208 0.0 0.0 0.00 0.00 0.00 99 972.8
20260830210246 75 208 0.0 0.0 0.00 0.00 0.00 99 972.9
20260830205744 74 208 0.0 0.0 0.00 0.00 0.00 99 972.8
20260830205239 75 208 0.0 0.0 0.00 0.00 0.00 99 972.9
20260830204734 75 208 0.0 0.0 0.00 0.00 0.00 99 972.8
20260830204233 75 208 0.0 0.0 0.00 0.00 0.00 99 972.8
20260830203729 75 208 0.0 0.0 0.00 0.00 0.00 99 972.7
20260830203225 75 208 0.0 0.0 0.00 0.00 0.00 99 972.7
20260830202724 75 208 0.0 0.0 0.00 0.00 0.00 99 972.7
20260830202220 75 208 0.0 0.0 0.00 0.00 0.00 99 973.1
20260830201719 75 208 0.0 0.0 0.00 0.00 0.00 99 972.8
20260830201214 75 208 0.0 0.0 0.00 0.00 0.00 99 972.8
20260830200710 75 208 0.0 0.0 0.00 0.00 0.00 99 972.8
20260830200209 75 208 0.0 0.0 0.00 0.00 0.00 99 972.9
20260830195704 75 208 0.0 0.0 0.00 0.00 0.00 99 972.8
20260830195202 75 208 0.0 0.0 0.00 0.00 0.00 99 972.8
20260830194701 75 208 0.0 0.0 0.00 0.00 0.00 99 973.1
20260830194156 75 208 0.0 0.0 0.00 0.00 0.00 99 972.9
20260830193650 75 208 0.0 0.0 0.00 0.00 0.00 99 973.1
20260830193145 75 208 0.0 0.0 0.00 0.00 0.00 99 972.9
20260830192640 75 204 0.0 0.0 0.00 0.00 0.00 99 973.2
20260830192135 75 204 0.0 0.0 0.00 0.00 0.00 99 973.2
20260830191631 74 204 0.0 0.0 0.00 0.00 0.00 99 973.2
20260830191126 74 200 0.0 0.0 0.00 0.00 0.00 99 973.0
20260830190621 74 196 0.0 0.0 0.00 0.00 0.00 99 973.4
20260830190115 74 196 0.0 0.0 0.00 0.00 0.00 99 973.2
20260830185609 74 192 0.0 0.0 0.00 0.00 0.00 99 973.3
20260830185105 74 194 0.0 0.0 0.00 0.00 0.00 99 973.0
20260830184603 74 204 0.0 0.0 0.00 0.00 0.00 99 973.4
20260830184058 74 204 0.0 0.0 0.00 0.00 0.00 99 973.2
20260830183552 74 204 0.0 0.0 0.00 0.00 0.00 99 973.3
20260830183048 74 208 0.0 0.0 0.00 0.00 0.00 99 973.4
20260830182538 74 208 0.0 0.0 0.00 0.00 0.00 99 973.5
20260830182034 75 208 0.0 0.0 0.00 0.00 0.00 99 973.5
20260830181530 75 208 0.0 0.0 0.00 0.00 0.00 99 973.5
20260830181029 75 208 0.0 0.0 0.00 0.00 0.00 99 973.4
20260830180524 75 208 0.0 0.0 0.00 0.00 0.00 99 973.5
20260830180023 75 208 0.0 0.0 0.00 0.00 0.00 99 973.5
20260830175522 75 208 0.0 0.0 0.00 0.00 0.00 99 973.4
20260830175018 75 208 0.0 0.0 0.00 0.00 0.00 99 973.4
20260830174513 75 208 0.0 0.0 0.00 0.00 0.00 99 973.5
20260830174008 75 208 0.0 0.0 0.00 0.00 0.00 99 973.8
20260830173503 75 208 0.0 0.0 0.00 0.00 0.00 99 973.9
20260830172958 75 208 0.0 0.0 0.00 0.00 0.00 99 974.0
20260830172455 75 208 0.0 0.0 0.00 0.00 0.00 99 974.0
20260830171950 75 208 0.0 0.0 0.00 0.00 0.00 99 974.0
20260830171445 75 208 0.0 0.0 0.00 0.00 0.00 99 974.1
20260830170945 75 208 0.0 0.0 0.00 0.00 0.00 99 973.9
20260830170440 75 208 0.0 0.0 0.00 0.00 0.00 99 973.9
20260830165938 75 208 0.0 0.0 0.00 1.02 1.02 99 974.1
20260830165435 75 208 0.0 0.0 0.00 1.02 1.02 99 974.1
20260830164931 75 208 0.0 0.0 0.00 1.02 1.02 99 974.3
20260830164426 75 208 0.0 0.0 0.00 1.02 1.02 99 974.3
20260830163922 75 208 0.0 0.0 0.00 1.02 1.02 99 974.4
20260830163419 75 208 0.0 0.0 0.00 1.02 1.02 99 974.5
20260830162918 75 208 0.0 0.0 0.00 1.02 1.02 99 974.4
20260830162414 75 208 0.0 0.0 0.00 1.02 1.02 99 974.7
20260830161908 75 208 0.0 0.0 0.00 1.02 1.02 99 974.7
20260830161408 75 208 0.0 0.0 0.00 1.02 1.02 99 974.7
20260830160903 75 208 0.0 0.0 0.00 1.02 1.02 99 974.8
20260830160359 75 208 0.0 0.0 0.00 1.02 1.02 99 974.9
20260830155854 75 208 0.0 0.0 0.00 1.02 1.02 99 974.7
20260830155350 75 208 0.0 0.0 0.00 1.02 1.02 99 974.9
20260830154845 75 208 0.0 0.0 0.00 1.02 1.02 99 974.9
20260830154341 75 208 0.0 0.0 0.00 1.02 1.02 99 974.8
20260830153838 75 208 0.0 0.0 0.00 1.02 1.02 99 975.0
20260830153333 75 208 0.0 0.0 0.00 1.02 1.02 99 975.0
20260830152831 75 208 0.0 0.0 0.00 1.02 1.02 99 975.1
20260830152326 75 208 0.0 0.0 0.00 1.02 1.02 99 974.9
20260830151821 75 208 0.0 0.0 0.00 1.02 1.02 99 975.1
20260830151320 75 208 0.0 0.0 0.00 1.02 1.02 99 974.6
20260830150815 75 208 0.0 0.0 0.00 1.02 1.02 99 975.1
20260830150314 75 208 0.0 0.0 0.00 0.94 0.94 99 974.8
20260830145809 75 208 0.0 0.0 0.00 0.94 0.94 99 975.3
20260830145306 75 208 0.0 0.0 0.00 0.94 0.94 99 974.7
20260830144759 75 204 0.0 0.0 0.00 0.94 0.94 99 975.0
20260830144255 75 204 0.0 0.0 0.00 0.94 0.94 99 974.8
20260830143751 75 204 0.0 0.0 0.00 0.94 0.94 99 974.8
20260830143250 75 204 0.0 0.0 0.00 0.94 0.94 99 974.7
20260830142745 75 204 0.0 0.0 0.00 0.94 0.94 99 975.0
20260830142240 75 204 0.0 0.0 0.00 0.94 0.94 99 974.9
20260830141735 75 204 0.0 0.0 0.00 0.94 0.94 99 974.7
20260830141230 75 204 0.0 0.0 0.00 0.94 0.94 99 974.5
20260830140725 75 204 0.0 0.0 0.00 0.94 0.94 99 974.6
20260830140220 75 204 0.0 0.0 0.00 0.94 0.94 99 974.4
20260830135714 75 204 0.0 0.0 0.00 0.94 0.94 99 974.5
20260830135204 75 204 0.0 0.0 0.00 0.94 0.94 99 974.3
20260830134700 75 204 0.0 0.0 0.00 0.94 0.94 99 974.1
20260830134155 75 204 0.0 0.0 0.00 0.94 0.94 99 974.1
20260830133650 75 204 0.0 0.0 0.00 0.94 0.94 99 974.0
20260830133146 75 204 0.0 0.0 0.00 0.94 0.94 99 974.1
20260830132642 75 204 0.0 0.0 0.00 0.94 0.94 99 974.1
20260830132137 75 204 0.0 0.0 0.00 0.94 0.94 99 973.9
20260830131636 74 204 0.0 0.0 0.00 0.94 0.94 99 973.8
20260830131136 75 204 0.0 0.0 0.00 0.94 0.94 99 973.9
20260830130631 74 204 0.0 0.0 0.00 0.94 0.94 99 973.6
20260830130126 74 203 0.0 0.0 0.00 0.94 0.94 99 973.7
20260830125625 74 197 0.0 0.0 0.00 0.94 0.94 99 973.7
20260830125120 74 203 0.0 0.0 0.00 0.94 0.94 99 973.6
20260830124618 74 204 0.0 0.0 0.00 0.94 0.94 99 973.8
20260830124114 74 204 0.0 0.0 0.00 0.94 0.94 99 973.7
20260830123611 74 208 0.0 0.0 0.00 0.94 0.94 99 973.4
20260830123106 74 207 0.0 0.0 0.00 0.94 0.94 99 973.3
20260830122603 74 208 0.0 0.0 0.00 0.94 0.94 99 973.2
20260830122059 74 203 0.0 0.0 0.00 0.94 0.94 99 973.2
20260830121554 74 203 0.0 0.0 0.00 0.94 0.94 99 973.4
20260830121054 74 210 0.0 0.0 0.00 0.94 0.94 99 973.1
20260830120549 75 213 0.0 0.0 0.00 0.94 0.94 99 973.3
20260830120045 75 212 0.0 0.0 0.00 0.94 0.94 99 973.3
20260830115541 75 211 0.0 0.0 0.00 0.94 0.94 99 973.1
20260830115036 75 203 0.0 0.0 0.00 0.94 0.94 99 973.4
20260830114533 75 203 0.0 0.0 0.00 0.94 0.94 99 973.1
20260830114032 75 217 0.0 0.0 0.00 0.94 0.94 99 973.1
20260830113527 75 217 0.0 0.0 0.00 0.94 0.94 99 973.2
20260830113023 75 217 0.0 0.0 0.00 0.94 0.94 99 973.0
20260830112519 75 217 0.0 0.0 0.00 0.94 0.94 99 973.0
20260830112015 75 217 0.0 0.0 0.00 0.79 0.79 99 973.1
20260830111510 75 216 0.0 0.0 0.00 0.79 0.79 99 973.0
20260830111006 75 216 0.0 0.0 0.00 0.79 0.79 99 972.8
20260830110501 75 216 0.0 0.0 0.00 0.79 0.79 99 972.9
20260830110001 75 216 0.0 0.0 0.00 0.79 0.79 99 972.9
20260830105456 75 216 0.0 0.0 0.00 0.79 0.79 99 972.8
20260830104953 75 216 0.0 0.0 0.00 0.79 0.79 99 972.7
20260830104449 75 216 0.0 0.0 0.00 0.79 0.79 99 972.8
20260830103944 75 216 0.0 0.0 0.00 0.79 0.79 99 972.8
20260830103440 75 216 0.0 0.0 0.00 0.79 0.79 99 972.6
20260830102937 75 216 0.0 0.0 0.00 0.79 0.79 99 972.8
20260830102433 75 216 0.0 0.0 0.00 0.79 0.79 99 972.6
20260830101929 75 216 0.0 0.0 0.00 0.79 0.79 99 972.4
20260830101424 75 216 0.0 0.0 0.00 0.79 0.79 99 972.5
20260830100924 75 216 0.0 0.0 0.00 0.79 0.79 99 972.7
20260830100423 75 216 0.0 0.0 0.00 0.79 0.79 99 972.5
20260830095922 75 216 0.0 0.0 0.00 0.79 0.79 99 972.5
20260830095418 75 216 0.0 0.0 0.00 0.79 0.79 99 972.4
20260830094914 75 216 0.0 0.0 0.00 0.79 0.79 99 972.5
20260830094410 75 216 0.0 0.0 0.00 0.79 0.79 99 972.7
20260830093906 75 216 0.0 0.0 0.00 0.79 0.79 99 972.5
20260830093401 75 216 0.0 0.0 0.00 0.79 0.79 99 972.6
20260830092856 75 216 0.0 0.0 0.00 0.79 0.79 99 972.8
20260830092352 75 216 0.0 0.0 0.00 0.79 0.79 99 972.9
20260830091848 75 216 0.0 0.0 0.00 0.79 0.79 99 972.7
20260830091348 75 216 0.0 0.0 0.00 0.79 0.79 99 972.9
20260830090847 75 216 0.0 0.0 0.00 0.79 0.79 99 972.9
20260830090342 75 216 0.0 0.0 0.00 0.79 0.79 99 972.9
20260830085842 75 216 0.0 0.0 0.00 0.79 0.79 99 972.8
20260830085337 75 216 0.0 0.0 0.00 0.79 0.79 99 972.9
20260830084833 75 216 0.0 0.0 0.00 0.79 0.79 99 972.7
20260830084328 75 216 0.0 0.0 0.00 0.79 0.79 99 973.1
20260830083823 75 216 0.0 0.0 0.00 0.79 0.79 99 973.0
20260830083320 76 216 0.0 0.0 0.00 0.79 0.79 99 973.1
20260830082819 75 207 0.0 0.0 0.00 0.79 0.79 99 973.1
20260830082314 75 207 0.0 0.0 0.00 0.79 0.79 99 973.3
20260830081809 75 207 0.0 0.0 0.00 0.79 0.79 99 973.2
20260830081303 76 216 0.0 0.0 0.00 0.79 0.79 99 973.1
20260830080757 76 216 0.0 0.0 0.00 0.79 0.79 99 973.2
20260830080254 76 216 0.0 0.0 0.00 0.00 0.00 99 973.2
20260830075753 75 216 0.0 0.0 0.00 0.00 0.00 99 973.1
20260830075248 75 216 0.0 0.0 0.00 0.00 0.00 99 973.3
20260830074743 75 216 0.0 0.0 0.00 0.00 0.00 99 973.5
20260830074240 75 217 0.0 0.0 0.00 0.00 0.00 99 973.6
20260830073735 75 216 0.0 0.0 0.00 0.00 0.00 99 973.6
20260830073231 76 216 0.0 0.0 0.00 0.00 0.00 99 973.6
20260830072725 75 216 0.0 0.0 0.00 0.00 0.00 99 973.6
20260830072220 75 216 0.0 0.0 0.00 0.00 0.00 99 973.8
20260830071715 75 216 0.0 0.0 0.00 0.00 0.00 99 973.8
20260830071214 75 216 0.0 0.0 0.00 0.00 0.00 99 973.8
20260830070709 75 216 0.0 0.0 0.00 0.00 0.00 99 973.9
20260830070209 75 217 0.0 0.0 0.00 0.00 0.00 99 973.8
20260830065707 75 216 0.0 0.0 0.00 0.00 0.00 99 973.6
20260830065202 75 216 0.0 0.0 0.00 0.00 0.00 99 974.1
20260830064701 75 216 0.0 0.0 0.00 0.00 0.00 99 974.0
20260830064156 75 216 0.0 0.0 0.00 0.00 0.00 99 974.1
20260830063655 75 217 0.0 0.0 0.00 0.00 0.00 99 974.2
20260830063155 75 216 0.0 0.0 0.00 0.00 0.00 99 974.0
20260830062650 75 216 0.0 0.0 0.00 0.00 0.00 99 974.3
20260830062144 75 216 0.0 0.0 0.00 0.00 0.00 99 974.4
20260830061639 75 216 0.0 0.0 0.00 0.00 0.00 99 974.5
20260830061135 75 216 0.0 0.0 0.00 0.00 0.00 99 974.5
20260830060627 75 217 0.0 0.0 0.00 0.00 0.00 99 974.5
20260830060122 75 216 0.0 0.0 0.00 0.00 0.00 99 974.6
20260830055617 75 216 0.0 0.0 0.00 0.00 0.00 99 974.7
20260830055113 75 216 0.0 0.0 0.00 0.00 0.00 99 974.6
20260830054608 75 216 0.0 0.0 0.00 0.00 0.00 99 974.7
20260830054103 75 216 0.0 0.0 0.00 0.00 0.00 99 974.5
20260830053559 75 216 0.0 0.0 0.00 0.00 0.00 99 974.8
20260830053059 75 216 0.0 0.0 0.00 0.00 0.00 99 974.8
20260830052554 74 216 0.0 0.0 0.00 0.00 0.00 99 975.2
20260830052054 74 216 0.0 0.0 0.00 0.00 0.00 99 975.1
20260830051549 75 216 0.0 0.0 0.00 0.00 0.00 99 975.0
20260830051045 75 216 0.0 0.0 0.00 0.00 0.00 99 974.9
20260830050538 75 216 0.0 0.0 0.00 0.00 0.00 99 975.1
20260830050032 75 216 0.0 0.0 0.00 0.00 0.00 99 975.1
20260830045531 75 216 0.0 0.0 0.00 0.00 0.00 99 975.1
20260830045027 75 216 0.0 0.0 0.00 0.00 0.00 99 975.2
20260830044521 75 216 0.0 0.0 0.00 0.00 0.00 99 975.3
20260830044016 75 216 0.0 0.0 0.00 0.00 0.00 99 975.1
20260830043511 75 216 0.0 0.0 0.00 0.00 0.00 99 975.3
20260830043010 75 216 0.0 0.0 0.00 0.00 0.00 99 975.4
20260830042508 75 216 0.0 0.0 0.00 0.00 0.00 99 975.4
20260830042003 75 212 0.0 0.0 0.00 0.00 0.00 99 975.4
20260830041502 75 216 0.0 0.0 0.00 0.00 0.00 99 975.4
20260830040956 75 216 0.0 0.0 0.00 0.00 0.00 99 975.3
20260830040452 75 216 0.0 0.0 0.00 0.00 0.00 99 975.5
20260830035951 75 216 0.0 0.0 0.00 0.00 0.00 99 975.4
20260830035450 75 216 0.0 0.0 0.00 0.00 0.00 99 975.3
20260830034945 75 216 0.0 0.0 0.00 0.00 0.00 99 975.2
20260830034436 75 216 0.0 0.0 0.00 0.00 0.00 99 975.3
20260830033930 75 216 0.0 0.0 0.00 0.00 0.00 99 975.4
20260830033425 75 216 0.0 0.0 0.00 0.00 0.00 99 975.3
20260830032920 75 216 0.0 0.0 0.00 0.00 0.00 99 975.2
20260830032419 75 216 0.0 0.0 0.00 0.00 0.00 99 975.3
20260830031914 75 216 0.0 0.0 0.00 0.00 0.00 99 975.3
20260830031409 74 216 0.0 0.0 0.00 0.00 0.00 99 975.4
20260830030905 74 216 0.0 0.0 0.00 0.00 0.00 99 975.3